This demonstration page uses our WeatherBlox Daily Observations layout. Learn more.

Left ArrowRight Arrow

40.97296, -117.73568

Hourly Observations for August 1, 2020

Temp ( °F °C ) Dew Point ( °F °C ) Humidity (%) Winds ( mph kmh ) Pressure ( in mb ) Visibility ( mi km ) Precip ( " mm )
12:56 am 00:56 Clear 62 16.7 14 -10 15 15 NW 5 7 29.90 1013 10 16 0.00 0.00
1:56 am 01:56 Clear 56 13.3 19 -7.2 24 24 S 9 15 29.91 1013 10 16 0.00 0.00
2:56 am 02:56 Clear 54 12.2 19 -7.2 25 25 SSE 7 11 29.92 1013 10 16 0.00 0.00
3:56 am 03:56 Clear 51 10.6 17 -8.3 26 26 Calm 29.93 1014 10 16 0.00 0.00
4:56 am 04:56 Clear 48 8.9 17 -8.3 29 29 Calm 29.96 1014 10 16 0.00 0.00
5:56 am 05:56 Sunny 50 10 20 -6.7 30 30 S 8 13 29.96 1015 10 16 0.00 0.00
6:56 am 06:56 Sunny 57 13.9 17 -8.3 21 21 S 3 6 29.97 1015 10 16 0.00 0.00
7:56 am 07:56 Sunny 70 21.1 23 -5 17 17 SE 3 6 29.98 1015 10 16 0.00 0.00
8:56 am 08:56 Sunny 82 27.8 25 -3.9 12 12 W 5 7 29.96 1015 10 16 0.00 0.00
9:56 am 09:56 Sunny 87 30.6 23 -5 9 9 VRB 3 6 29.96 1015 10 16 0.00 0.00
10:56 am 10:56 Sunny 91 32.8 19 -7.2 7 7 VRB 6 9 29.94 1014 10 16 0.00 0.00
11:56 am 11:56 Sunny 94 34.4 16 -8.9 6 6 NNW 8 13 29.93 1014 10 16 0.00 0.00
12:56 pm 12:56 Sunny 97 36.1 16 -8.9 5 5 VRB 5 7 29.92 1013 10 16 0.00 0.00
1:56 pm 13:56 Sunny 100 37.8 13 -10.6 4 4 VRB 6 9 29.92 1013 10 16 0.00 0.00
2:56 pm 14:56 Mostly Sunny 101 38.3 13 -10.6 4 4 W 12 19 29.89 1012 10 16 0.00 0.00
3:56 pm 15:56 Mostly Sunny 101 38.3 12 -11.1 4 4 W 7 11 29.89 1012 10 16 0.00 0.00
4:56 pm 16:56 Mostly Sunny 100 37.8 12 -11.1 4 4 W 9 15 29.88 1012 10 16 0.00 0.00
5:56 pm 17:56 Partly Cloudy 99 37.2 12 -11.1 4 4 WNW 13 20 29.88 1012 10 16 0.00 0.00
6:56 pm 18:56 Mostly Sunny 97 36.1 8 -13.3 4 4 WNW 14 22 29.87 1012 10 16 0.00 0.00
7:56 pm 19:56 Sunny 88 31.1 13 -10.6 6 6 W 8 13 29.88 1012 10 16 0.00 0.00
8:56 pm 20:56 Clear 79 26.1 14 -10 8 8 N 3 6 29.89 1012 10 16 0.00 0.00
9:56 pm 21:56 Clear 73 22.8 10 -12.2 9 9 WNW 3 6 29.91 1013 10 16 0.00 0.00
10:56 pm 22:56 Clear 68 20 19 -7.2 15 15 E 3 6 29.91 1013 10 16 0.00 0.00
11:56 pm 23:56 Clear 63 17.2 12 -11.1 13 13 Calm 29.92 1013 10 16 0.00 0.00

Powered by AerisWeather